This demonstration page uses our WeatherBlox Daily Observations layout. Learn more.

Left ArrowRight Arrow

Hourly Observations for May 19, 2018

Temp ( °F °C ) Dew Point ( °F °C ) Humidity (%) Winds ( mph kmh ) Pressure ( in mb ) Visibility ( mi km ) Precip ( " mm )
12:37 am 00:37 Cloudy with Nearby Thunderstorms 63 17 61 16 94 94 SSE 5 7 29.88 1012 10 16 0.00 0.00
12:52 am 00:52 Cloudy with Light Rain 61 16 61 16 100 100 SSE 6 9 29.88 1012 10 16 0.09 2.29
12:56 am 00:56 Cloudy with Light Rain 61 16.1 60 15.6 97 97 SE 5 7 29.89 1012 9 14 0.09 2.29
1:56 am 01:56 Cloudy with Light Rain 61 16.1 59 15 93 93 S 7 11 29.89 1012 10 16 0.05 1.27
2:56 am 02:56 Cloudy with Rain 61 16.1 59 15 93 93 SE 9 15 29.91 1013 3 5 0.21 5.33
3:03 am 03:03 Cloudy with Rain 61 16 59 15 94 94 ESE 5 7 29.88 1012 6 10 0.00 0.00
3:29 am 03:29 Cloudy with Rain 61 16 59 15 94 94 SE 3 6 29.88 1012 2 3 0.00 0.00
3:38 am 03:38 Cloudy with Rain 61 16 59 15 94 94 ENE 5 7 29.88 1012 6 10 0.19 4.83
3:47 am 03:47 Cloudy with Light Rain 61 16 59 15 94 94 E 6 9 29.88 1012 7 11 0.00 0.00
3:56 am 03:56 Cloudy with Light Rain 60 15.6 59 15 96 96 ENE 7 11 29.90 1012 10 16 0.22 5.59
4:56 am 04:56 Cloudy with Light Rain 60 15.6 58 14.4 93 93 ENE 14 22 29.87 1012 10 16 0.03 0.76
5:56 am 05:56 Cloudy with Light Rain 60 15.6 58 14.4 93 93 NE 14 22 29.85 1011 10 16 0.03 0.76
6:19 am 06:19 Cloudy with Light Rain 61 16 59 15 94 94 NE 14 22 29.83 1010 10 16 0.00 0.00
6:25 am 06:25 Cloudy with Light Rain 61 16 59 15 94 94 NE 14 22 29.83 1010 9 14 0.00 0.03
6:37 am 06:37 Cloudy with Light Rain 59 15 57 14 94 94 NE 18 30 29.83 1010 6 10 0.00 0.00
6:56 am 06:56 Cloudy with Rain 57 13.9 56 13.3 96 96 NE 17 28 29.87 1012 4 6 0.10 2.54
7:56 am 07:56 Cloudy with Light Rain 56 13.3 55 12.8 97 97 NE 21 33 29.87 1012 9 14 0.07 1.78
8:05 am 08:05 Cloudy with Light Rain 55 13 55 13 100 100 NE 18 30 29.88 1012 10 16 0.00 0.00
8:56 am 08:56 Cloudy with Light Rain 53 11.7 52 11.1 96 96 NE 20 31 29.89 1012 3 5 0.05 1.27
9:56 am 09:56 Cloudy 52 11.1 50 10 93 93 NNE 22 35 29.90 1013 10 16 0.04 1.02
10:56 am 10:56 Cloudy 50 10 48 8.9 93 93 NNE 13 20 29.95 1014 10 16 0.00 0.03
11:56 am 11:56 Cloudy 50 10 48 8.9 93 93 NE 18 30 29.98 1015 10 16 0.00 0.00
12:56 pm 12:56 Cloudy 51 10.6 48 8.9 89 89 NNE 17 28 29.99 1016 10 16 0.00 0.03
1:56 pm 13:56 Cloudy 51 10.6 47 8.3 86 86 NNE 18 30 30.00 1016 10 16 0.00 0.00
2:54 pm 14:54 Cloudy 52 11 48 9 88 88 NNE 18 30 30.00 1016 10 16 0.00 0.00
2:56 pm 14:56 Cloudy 51 10.6 47 8.3 86 86 NNE 18 30 30.00 1016 10 16 0.00 0.00
3:19 pm 15:19 Cloudy 50 10 46 8 88 88 NNE 17 28 30.00 1016 10 16 0.00 0.00
3:56 pm 15:56 Cloudy 51 10.6 48 8.9 89 89 NNE 18 30 29.98 1015 10 16 0.00 0.00
4:56 pm 16:56 Cloudy 51 10.6 47 8.3 86 86 NNE 22 35 29.98 1015 10 16 0.00 0.00
5:26 pm 17:26 Cloudy 50 10 46 8 88 88 NNE 17 28 30.03 1017 10 16 0.00 0.00
5:52 pm 17:52 Cloudy 52 11 46 8 82 82 NNE 16 26 30.00 1016 10 16 0.00 0.00
5:56 pm 17:56 Cloudy 51 10.6 47 8.3 86 86 NNE 18 30 30.00 1016 10 16 0.00 0.00
6:56 pm 18:56 Cloudy 50 10 47 8.3 89 89 NNE 16 26 30.02 1017 10 16 0.00 0.00
7:56 pm 19:56 Cloudy 50 10 47 8.3 89 89 NE 16 26 30.03 1017 10 16 0.00 0.00
8:33 pm 20:33 Cloudy 50 10 46 8 88 88 NNE 15 24 30.06 1018 10 16 0.00 0.00
8:56 pm 20:56 Cloudy with Light Rain 50 10 48 8.9 93 93 NE 14 22 30.05 1018 10 16 0.00 0.03
9:56 pm 21:56 Cloudy with Light Rain 50 10 48 8.9 93 93 NNE 12 19 30.08 1019 10 16 0.00 0.03
10:56 pm 22:56 Cloudy with Rain 50 10 49 9.4 96 96 NNW 8 13 30.11 1020 7 11 0.09 2.29
11:51 pm 23:51 Cloudy with Light Rain 50 10 48 9 94 94 NNW 8 13 30.12 1020 5 8 0.00 0.00
11:56 pm 23:56 Cloudy with Light Rain 50 10 49 9.4 96 96 NNW 8 13 30.12 1020 6 10 0.04 1.02

Powered by AerisWeather